DW6044 Weather Reports


time (UTC)temp
C
wind
direction
speed
KPH
gust
KPH
rain 1hr
cm
rain 24hr
cm
rain mn
cm
humidity
%
barometer
mb
20260507151547 12 42 1.6 0.0 0.00 0.00 0.56 58 1012.9
20260507151513 12 41 1.6 0.0 0.00 0.00 0.56 55 1012.9
20260507151404 12 77 1.6 3.2 0.00 0.91 0.56 60 1012.4
20260507151203 12 250 1.6 6.4 0.00 0.91 0.56 63 1012.5
20260507150903 12 342 0.0 9.7 0.00 0.91 0.56 60 1013.0
20260507150803 12 289 1.6 9.7 0.00 0.91 0.56 62 1012.6
20260507150602 12 0 0.0 9.7 0.00 0.91 0.56 58 1012.5
20260507150404 12 0 0.0 6.4 0.00 0.91 0.56 57 1012.5
20260507150029 11 5 0.0 0.0 0.00 0.00 0.56 59 1013.1
20260507150004 12 0 0.0 0.0 0.00 0.94 0.56 59 1012.6
20260507145903 12 64 0.0 0.0 0.00 0.99 0.56 60 1013.1
20260507145803 12 0 0.0 0.0 0.00 0.97 0.56 59 1012.6
20260507145603 12 0 0.0 0.0 0.00 0.99 0.56 62 1012.6
20260507145403 12 64 0.0 0.0 0.00 1.02 0.56 62 1013.0
20260507145203 12 0 0.0 1.6 0.00 1.02 0.56 62 1012.5
20260507144902 12 14 0.0 0.0 0.00 1.04 0.56 61 1012.9
20260507144603 12 0 0.0 0.0 0.00 1.04 0.56 60 1012.6
20260507144545 11 5 0.0 0.0 0.00 0.00 0.56 60 1013.0
20260507144404 12 0 0.0 0.0 0.00 1.04 0.56 62 1012.6
20260507144204 11 0 0.0 0.0 0.00 1.04 0.56 61 1012.6
20260507143903 11 312 0.0 1.6 0.00 1.04 0.56 65 1013.2
20260507143803 11 0 0.0 0.0 0.00 1.04 0.56 66 1012.7
20260507143603 11 0 0.0 0.0 0.00 1.04 0.56 68 1012.8
20260507143403 11 337 0.0 0.0 0.00 1.04 0.56 66 1013.3
20260507143203 11 0 0.0 0.0 0.00 1.04 0.56 66 1012.8
20260507143045 11 334 0.0 0.0 0.00 0.00 0.56 68 1013.3
20260507143004 11 0 0.0 0.0 0.00 1.04 0.56 65 1012.8
20260507142903 11 334 0.0 0.0 0.00 1.04 0.56 63 1013.3
20260507142803 11 0 0.0 0.0 0.00 1.04 0.56 64 1012.9
20260507142603 11 0 0.0 0.0 0.00 1.04 0.56 65 1012.9
20260507142403 11 0 0.0 0.0 0.00 1.07 0.56 67 1013.0
20260507142203 11 0 0.0 0.0 0.00 1.07 0.56 67 1013.0
20260507142003 10 0 0.0 0.0 0.00 1.07 0.56 64 1013.0
20260507141600 10 334 0.0 0.0 0.00 0.00 0.56 65 1013.6
20260507141506 10 334 0.0 0.0 0.00 0.00 0.56 66 1013.6
20260507141404 10 0 0.0 3.2 0.00 1.09 0.56 67 1013.1
20260507141204 10 0 0.0 0.0 0.00 1.12 0.56 64 1013.2
20260507141004 10 0 0.0 0.0 0.00 1.12 0.56 66 1013.2
20260507140904 10 349 0.0 0.0 0.00 1.12 0.56 62 1013.7
20260507140803 10 0 0.0 0.0 0.00 1.12 0.56 62 1013.3
20260507140403 10 0 0.0 0.0 0.00 1.12 0.56 67 1013.4
20260507140203 10 0 0.0 0.0 0.00 1.14 0.56 68 1013.4
20260507140110 10 349 0.0 0.0 0.00 0.00 0.56 67 1013.9
20260507140016 10 349 0.0 0.0 0.00 0.00 0.56 67 1013.9
20260507140004 10 0 0.0 0.0 0.00 1.14 0.56 68 1013.4
20260507135903 10 349 0.0 0.0 0.00 1.14 0.56 69 1013.8
20260507135803 10 0 0.0 0.0 0.00 1.14 0.56 69 1013.3
20260507135603 10 0 0.0 0.0 0.00 1.14 0.56 69 1013.4
20260507135403 10 349 0.0 0.0 0.00 1.17 0.56 68 1013.8
20260507135203 10 0 0.0 0.0 0.00 1.17 0.56 68 1013.4
20260507135003 10 0 0.0 3.2 0.00 1.17 0.56 69 1013.5
20260507134902 10 349 0.0 3.2 0.00 1.19 0.56 69 1013.9
20260507134803 10 0 0.0 1.6 0.00 1.17 0.56 70 1013.5
20260507134603 10 0 0.0 8.0 0.00 1.19 0.56 70 1013.5
20260507134525 10 304 0.0 0.0 0.00 0.00 0.56 70 1013.9
20260507134203 10 0 0.0 0.0 0.00 1.19 0.56 71 1013.4
20260507133902 10 345 0.0 0.0 0.00 1.22 0.56 67 1013.8
20260507133603 10 0 1.6 0.0 0.00 1.22 0.56 72 1013.4
20260507133403 10 345 1.6 1.6 0.00 1.24 0.56 71 1013.5
20260507133203 10 331 1.6 16.1 0.00 1.24 0.56 71 1013.5
20260507133035 9 335 1.6 0.0 0.00 0.00 0.56 71 1013.9
20260507133004 10 0 0.0 16.1 0.00 1.24 0.56 70 1013.5
20260507132904 10 339 1.6 4.8 0.00 1.27 0.56 72 1013.9
20260507132803 10 0 0.0 4.8 0.00 1.24 0.56 71 1013.4
20260507132603 10 0 0.0 0.0 0.00 1.27 0.56 72 1013.4
20260507132203 10 0 0.0 0.0 0.00 1.27 0.56 77 1013.4
20260507131903 9 42 0.0 0.0 0.00 1.27 0.56 74 1013.8
20260507131803 9 0 0.0 0.0 0.00 1.27 0.56 75 1013.4
20260507131603 9 0 0.0 0.0 0.00 1.27 0.56 74 1013.4
20260507131542 9 43 0.0 0.0 0.00 0.00 0.56 74 1013.8
20260507131507 9 42 0.0 0.0 0.00 0.00 0.56 74 1013.8
20260507131403 9 43 0.0 0.0 0.00 1.30 0.56 73 1013.8
20260507131203 9 0 0.0 0.0 0.00 1.30 0.56 74 1013.5
20260507131004 9 0 0.0 0.0 0.00 1.30 0.56 77 1013.5
20260507130804 9 0 0.0 0.0 0.00 1.30 0.56 77 1013.3
20260507130604 9 0 0.0 0.0 0.00 1.30 0.56 73 1013.3
20260507130203 9 0 0.0 0.0 0.00 1.32 0.56 76 1013.2
20260507130049 8 5 0.0 0.0 0.00 0.00 0.56 77 1013.6
20260507130027 8 5 0.0 0.0 0.00 0.00 0.56 78 1013.6
20260507130003 9 0 0.0 0.0 0.00 1.32 0.56 78 1013.1
20260507125903 9 3 0.0 0.0 0.00 1.32 0.56 78 1013.6
20260507125804 9 0 0.0 0.0 0.00 1.32 0.56 78 1013.2
20260507125604 9 0 0.0 0.0 0.00 1.32 0.56 78 1013.2
20260507125403 8 3 0.0 0.0 0.00 1.32 0.56 77 1013.5
20260507125204 8 0 0.0 0.0 0.00 1.32 0.56 76 1013.2
20260507125003 8 0 0.0 0.0 0.00 1.32 0.56 77 1013.1
20260507124902 8 4 0.0 0.0 0.00 1.32 0.56 80 1013.5
20260507124804 8 0 0.0 0.0 0.00 1.32 0.56 79 1013.1
20260507124605 8 5 0.0 0.0 0.00 0.00 0.56 80 1013.5
20260507124603 8 0 0.0 0.0 0.00 1.32 0.56 80 1013.1
20260507124523 8 360 0.0 0.0 0.00 0.00 0.56 79 1013.5
20260507124404 8 0 0.0 0.0 0.00 1.32 0.56 79 1013.1
20260507124204 8 0 0.0 0.0 0.00 1.32 0.56 81 1013.1
20260507124003 8 0 0.0 4.8 0.00 1.32 0.56 81 1013.1
20260507123903 8 3 1.6 4.8 0.00 1.32 0.56 80 1013.5
20260507123803 8 0 0.0 4.8 0.00 1.32 0.56 81 1013.1
20260507123603 8 0 0.0 0.0 0.00 1.32 0.56 84 1013.2
20260507123403 8 297 0.0 0.0 0.00 1.35 0.56 84 1013.7
20260507123203 8 0 0.0 0.0 0.00 1.35 0.56 84 1013.2
20260507123038 8 296 0.0 0.0 0.00 0.00 0.56 84 1013.6
20260507123004 8 0 0.0 0.0 0.00 1.35 0.56 83 1013.2
20260507122903 8 297 0.0 0.0 0.00 1.35 0.56 82 1013.6
20260507122603 8 0 0.0 0.0 0.00 1.35 0.56 83 1013.1
20260507122403 8 300 0.0 0.0 0.00 1.35 0.56 83 1013.5
20260507122004 8 0 0.0 0.0 0.00 1.35 0.56 85 1013.1
20260507121903 8 300 0.0 0.0 0.00 1.35 0.56 87 1013.5
20260507121803 8 0 0.0 0.0 0.00 1.35 0.56 88 1013.1
20260507121604 8 0 0.0 0.0 0.00 1.35 0.56 87 1013.0
20260507121531 8 292 0.0 0.0 0.00 0.00 0.56 86 1013.5
20260507121404 8 0 0.0 0.0 0.00 1.35 0.56 87 1013.1
20260507121204 8 0 0.0 3.2 0.00 1.35 0.56 87 1013.1
20260507120903 8 344 0.0 0.0 0.00 1.35 0.56 88 1013.4
20260507120603 8 0 0.0 0.0 0.00 1.35 0.56 88 1013.0
20260507120403 8 344 0.0 0.0 0.00 1.35 0.56 90 1013.4
20260507120040 7 309 0.0 0.0 0.00 0.00 0.56 90 1013.5
20260507120010 7 309 0.0 0.0 0.00 0.00 0.56 91 1013.5
20260507120003 8 0 0.0 0.0 0.00 1.35 0.56 91 1013.3
20260507115903 8 309 0.0 0.0 0.00 1.35 0.56 91 1013.6
20260507115804 8 0 0.0 0.0 0.00 1.35 0.56 91 1013.2
20260507115603 8 0 0.0 0.0 0.00 1.35 0.56 91 1013.1
20260507115203 8 0 0.0 0.0 0.00 1.35 0.56 90 1013.0
20260507115004 8 0 0.0 0.0 0.00 1.35 0.56 90 1013.0
20260507114903 8 310 0.0 0.0 0.00 1.35 0.56 90 1013.4
20260507114804 8 0 0.0 0.0 0.00 1.35 0.56 90 1013.1
20260507114603 8 0 0.0 0.0 0.00 1.35 0.56 91 1013.0
20260507114556 7 309 0.0 0.0 0.00 0.00 0.56 91 1013.3
20260507114513 7 309 0.0 0.0 0.00 0.00 0.56 91 1013.4
20260507114403 8 0 0.0 0.0 0.00 1.35 0.56 91 1013.0
20260507114204 8 0 0.0 0.0 0.00 1.35 0.56 91 1013.0
20260507114004 8 0 0.0 0.0 0.00 1.35 0.56 91 1013.0
20260507113903 8 308 0.0 0.0 0.00 1.35 0.56 91 1013.5
20260507113804 8 0 0.0 0.0 0.00 1.35 0.56 91 1013.1
20260507113604 8 0 0.0 0.0 0.00 1.35 0.56 91 1013.1
20260507113404 8 0 0.0 0.0 0.00 1.35 0.56 92 1013.1
20260507113203 8 0 0.0 0.0 0.00 1.35 0.56 92 1013.0
20260507113031 8 308 0.0 0.0 0.00 0.00 0.56 92 1013.3
20260507112903 8 308 0.0 0.0 0.00 1.35 0.56 92 1013.3
20260507112803 8 0 0.0 0.0 0.00 1.35 0.56 93 1012.9
20260507112604 8 0 0.0 0.0 0.00 1.35 0.56 93 1012.9
20260507112403 8 308 0.0 0.0 0.00 1.35 0.56 92 1013.2
20260507112203 8 0 0.0 0.0 0.00 1.35 0.56 93 1012.8
20260507112003 8 0 0.0 0.0 0.00 1.35 0.56 93 1012.9
20260507111902 8 309 0.0 0.0 0.00 1.35 0.56 93 1013.1
20260507111603 8 0 0.0 0.0 0.00 1.35 0.56 93 1012.7
20260507111537 8 313 0.0 0.0 0.00 0.00 0.56 93 1013.0
20260507111403 8 0 0.0 0.0 0.00 1.35 0.56 94 1012.6
20260507111204 8 0 0.0 0.0 0.00 1.35 0.56 94 1012.8
20260507111003 8 0 0.0 0.0 0.00 1.35 0.56 93 1012.8
20260507110903 8 313 0.0 0.0 0.00 1.35 0.56 93 1013.1
20260507110803 8 0 0.0 0.0 0.00 1.35 0.56 93 1012.8
20260507110603 8 0 0.0 0.0 0.00 1.35 0.56 93 1012.6
20260507110403 8 0 0.0 0.0 0.00 1.35 0.56 93 1012.5
20260507110043 8 313 0.0 0.0 0.00 0.00 0.56 94 1012.7
20260507110008 8 313 0.0 0.0 0.00 0.00 0.56 94 1012.7
20260507110004 8 0 0.0 0.0 0.00 1.35 0.56 94 1012.3
20260507105903 8 313 0.0 0.0 0.00 1.35 0.56 94 1012.7
20260507105803 8 0 0.0 0.0 0.00 1.35 0.56 94 1012.4
20260507105604 8 0 0.0 0.0 0.00 1.35 0.56 94 1012.4
20260507105405 8 0 0.0 0.0 0.00 1.35 0.56 94 1012.4
20260507105203 8 0 0.0 0.0 0.00 1.35 0.56 94 1012.6
20260507105004 8 0 0.0 0.0 0.00 1.35 0.56 94 1012.6
20260507104903 8 313 0.0 0.0 0.00 1.35 0.56 94 1013.0
20260507104805 8 0 0.0 0.0 0.00 1.35 0.56 94 1012.6
20260507104604 8 0 0.0 0.0 0.00 1.35 0.56 94 1012.6
20260507104547 8 313 0.0 0.0 0.00 0.00 0.56 94 1012.9
20260507104511 8 313 0.0 0.0 0.00 0.00 0.56 94 1013.0
20260507104403 8 0 0.0 0.0 0.30 1.35 0.56 94 1012.6
20260507104203 8 0 0.0 0.0 0.30 1.35 0.56 94 1012.5
20260507104003 8 0 0.0 0.0 0.30 1.35 0.56 94 1012.5
20260507103903 8 313 0.0 0.0 0.00 1.35 0.56 94 1012.9
20260507103804 8 0 0.0 0.0 0.30 1.35 0.56 94 1012.5
20260507103603 8 0 0.0 0.0 0.30 1.35 0.56 94 1012.4
20260507103403 8 0 0.0 0.0 0.30 1.35 0.56 94 1012.4
20260507103203 8 0 0.0 0.0 0.30 1.35 0.56 94 1012.3
20260507103055 8 313 0.0 0.0 0.00 0.00 0.56 93 1012.6
20260507103020 8 313 0.0 0.0 0.00 0.00 0.56 93 1012.6
20260507103003 8 0 0.0 0.0 0.30 1.35 0.56 93 1012.2
20260507102903 8 313 0.0 0.0 0.00 1.35 0.56 93 1012.6
20260507102804 8 0 0.0 0.0 0.30 1.35 0.56 93 1012.2
20260507102603 8 0 0.0 0.0 0.30 1.35 0.56 94 1012.1
20260507102403 8 313 0.0 0.0 0.00 1.35 0.56 94 1012.4
20260507102003 8 0 0.0 0.0 0.30 1.35 0.56 94 1011.9
20260507101903 8 318 0.0 0.0 0.00 1.35 0.56 94 1012.3
20260507101803 8 0 0.0 0.0 0.30 1.35 0.56 94 1012.0
20260507101616 8 318 0.0 0.0 0.00 0.00 0.56 94 1012.4
20260507101604 8 0 0.0 0.0 0.30 1.35 0.56 94 1012.0
20260507101519 8 318 0.0 0.0 0.00 0.00 0.56 94 1012.4
20260507101403 8 0 0.0 0.0 0.30 1.35 0.56 94 1012.0
20260507100803 8 0 0.0 0.0 0.30 1.35 0.56 94 1012.1
20260507100604 8 0 0.0 0.0 0.30 1.35 0.56 94 1012.0
20260507100404 8 0 0.0 0.0 0.30 1.35 0.56 93 1012.0
20260507100203 8 0 0.0 0.0 0.30 1.35 0.56 93 1011.9
20260507100032 8 318 0.0 0.0 0.00 0.00 0.56 93 1012.2
20260507100003 8 0 0.0 0.0 0.30 1.35 0.56 93 1011.9
20260507095904 8 318 0.0 0.0 0.00 1.35 0.56 93 1012.2
20260507095803 8 0 0.0 0.0 0.30 1.35 0.56 93 1011.9
20260507095603 8 0 0.0 0.0 0.30 1.35 0.56 93 1012.0
20260507095403 8 0 0.0 0.0 0.30 1.35 0.56 93 1012.0
20260507095203 8 0 0.0 0.0 0.30 1.35 0.56 93 1011.9
20260507095003 8 0 0.0 0.0 0.30 1.35 0.56 93 1012.0
20260507094903 8 318 0.0 0.0 0.00 1.35 0.56 93 1012.2
20260507094604 11 0 0.0 0.0 0.00 1.04 0.25 93 1011.3
20260507094403 11 0 0.0 0.0 0.00 1.04 0.25 93 1011.3
20260507094203 11 0 0.0 0.0 0.00 1.04 0.25 93 1011.3
20260507094003 11 0 0.0 0.0 0.00 1.04 0.25 93 1011.3
20260507093903 8 318 0.0 0.0 0.00 1.35 0.56 92 1012.2
20260507093804 11 0 0.0 0.0 0.00 1.04 0.25 93 1011.3
20260507093604 11 0 0.0 0.0 0.00 1.04 0.25 93 1011.3
20260507093404 11 0 0.0 0.0 0.00 1.04 0.25 93 1011.3
20260507093003 11 0 0.0 0.0 0.00 1.04 0.25 93 1011.3
20260507092904 8 314 0.0 3.2 0.00 1.35 0.56 93 1012.3
20260507092803 11 0 0.0 0.0 0.00 1.04 0.25 93 1011.3
20260507092604 11 0 0.0 0.0 0.00 1.04 0.25 93 1011.3
20260507092404 8 339 0.0 0.0 0.00 1.35 0.56 92 1012.2
20260507092203 11 0 0.0 0.0 0.00 1.04 0.25 93 1011.3
20260507092003 11 0 0.0 0.0 0.00 1.04 0.25 93 1011.3
20260507091903 8 340 0.0 0.0 0.00 1.35 0.56 93 1012.1
20260507091803 11 0 0.0 0.0 0.00 1.04 0.25 93 1011.3
20260507091404 11 0 0.0 0.0 0.00 1.04 0.25 93 1011.3
20260507091204 11 0 0.0 0.0 0.00 1.04 0.25 93 1011.3
20260507091003 11 0 0.0 0.0 0.00 1.04 0.25 93 1011.3
20260507090904 9 340 0.0 0.0 0.00 1.35 0.56 94 1012.2
20260507090803 11 0 0.0 0.0 0.00 1.04 0.25 93 1011.3
20260507090604 11 0 0.0 0.0 0.00 1.04 0.25 93 1011.3
20260507090004 11 0 0.0 0.0 0.00 1.04 0.25 93 1011.3
20260507085903 10 268 0.0 0.0 0.00 1.35 0.56 95 1011.9
20260507085603 11 0 0.0 0.0 0.00 1.04 0.25 93 1011.3
20260507085403 10 31 0.0 0.0 0.00 1.35 0.56 95 1011.7
20260507085203 11 0 0.0 0.0 0.00 1.04 0.25 93 1011.3
20260507084903 10 31 0.0 0.0 0.00 1.35 0.56 95 1011.7
20260507084803 11 0 0.0 0.0 0.00 1.04 0.25 93 1011.3
20260507084603 11 0 0.0 0.0 0.00 1.04 0.25 93 1011.3
20260507084403 11 0 0.0 0.0 0.00 1.04 0.25 93 1011.3
20260507084204 11 0 0.0 0.0 0.00 1.04 0.25 93 1011.3
20260507084005 11 0 0.0 0.0 0.00 1.04 0.25 93 1011.3
20260507083903 10 31 0.0 0.0 0.00 1.35 0.56 95 1011.5
20260507083803 11 0 0.0 0.0 0.00 1.04 0.25 93 1011.3
20260507083603 11 0 0.0 0.0 0.00 1.04 0.25 93 1011.3
20260507083405 11 0 0.0 0.0 0.00 1.04 0.25 93 1011.3
20260507083203 11 0 0.0 0.0 0.00 1.04 0.25 93 1011.3
20260507083004 11 0 0.0 0.0 0.00 1.04 0.25 93 1011.3
20260507082903 10 31 0.0 0.0 0.00 1.35 0.56 95 1011.2
20260507082803 11 0 0.0 0.0 0.00 1.04 0.25 93 1011.3
20260507082603 11 0 0.0 0.0 0.00 1.04 0.25 93 1011.3
20260507082404 11 0 0.0 0.0 0.00 1.04 0.25 93 1011.3
20260507082203 11 0 0.0 0.0 0.00 1.04 0.25 93 1011.3
20260507082004 11 0 0.0 0.0 0.00 1.04 0.25 93 1011.3
20260507081903 10 31 0.0 0.0 0.00 1.35 0.56 95 1011.2
20260507081803 11 0 0.0 0.0 0.00 1.04 0.25 93 1011.3
20260507081604 11 0 0.0 0.0 0.00 1.04 0.25 93 1011.3
20260507081403 11 0 0.0 0.0 0.00 1.04 0.25 93 1011.3
20260507081203 11 0 0.0 0.0 0.00 1.04 0.25 93 1011.3
20260507080902 10 34 0.0 0.0 0.00 1.35 0.56 95 1011.3
20260507080804 11 0 0.0 0.0 0.00 1.04 0.25 93 1011.3
20260507080603 11 0 0.0 0.0 0.00 1.04 0.25 93 1011.3
20260507080405 11 0 0.0 0.0 0.00 1.04 0.25 93 1011.3
20260507080004 11 0 0.0 0.0 0.00 1.04 0.25 93 1011.3
20260507075903 9 34 0.0 0.0 0.03 1.35 0.56 95 1011.3
20260507075804 11 0 0.0 0.0 0.00 1.04 0.25 93 1011.3
20260507075603 11 0 0.0 0.0 0.00 1.04 0.25 93 1011.3
20260507075404 11 0 0.0 0.0 0.00 1.04 0.25 93 1011.3
20260507075203 11 0 0.0 0.0 0.00 1.04 0.25 93 1011.3
20260507074904 9 34 0.0 0.0 0.05 1.35 0.56 95 1011.1
20260507074803 11 0 0.0 0.0 0.00 1.04 0.25 93 1011.3
20260507074604 11 0 0.0 0.0 0.00 1.04 0.25 93 1011.3
20260507074404 11 0 0.0 0.0 0.00 1.04 0.25 93 1011.3
20260507074203 11 0 0.0 0.0 0.00 1.04 0.25 93 1011.3
20260507074003 11 0 0.0 0.0 0.00 1.04 0.25 93 1011.3
20260507073903 9 34 0.0 0.0 0.10 1.35 0.56 95 1011.3
20260507073803 11 0 0.0 0.0 0.00 1.04 0.25 93 1011.3
20260507073603 11 0 0.0 0.0 0.00 1.04 0.25 93 1011.3
20260507073403 9 34 0.0 0.0 0.13 1.35 0.56 95 1011.3
20260507073203 11 0 0.0 0.0 0.00 1.04 0.25 93 1011.3
20260507073003 11 0 0.0 0.0 0.00 1.04 0.25 93 1011.3
20260507072903 9 34 0.0 0.0 0.18 1.35 0.56 95 1011.4
20260507072803 11 0 0.0 0.0 0.00 1.04 0.25 93 1011.3
20260507072603 11 0 0.0 0.0 0.00 1.04 0.25 93 1011.3
20260507072403 9 34 0.0 0.0 0.20 1.35 0.56 95 1011.3
20260507072203 11 0 0.0 0.0 0.00 1.04 0.25 93 1011.3
20260507072003 11 0 0.0 0.0 0.00 1.04 0.25 93 1011.3
20260507071904 9 34 0.0 0.0 0.23 1.35 0.56 95 1011.4
20260507071804 11 0 0.0 0.0 0.00 1.04 0.25 93 1011.3
20260507071404 11 0 0.0 0.0 0.00 1.04 0.25 93 1011.3
20260507071203 11 0 0.0 0.0 0.00 1.04 0.25 93 1011.3
20260507071003 11 0 0.0 0.0 0.00 1.04 0.25 93 1011.3
20260507070903 9 34 0.0 0.0 0.23 1.35 0.56 94 1011.5
20260507070604 11 0 0.0 0.0 0.00 1.04 0.25 93 1011.3
20260507070404 11 0 0.0 0.0 0.00 1.04 0.25 93 1011.3
20260507070203 11 0 0.0 0.0 0.00 1.04 0.25 93 1011.3
20260507070008 11 0 0.0 0.0 0.00 1.04 0.25 93 1011.3
20260507065903 9 34 0.0 0.0 0.25 1.32 0.53 94 1011.8
20260507065803 11 0 0.0 0.0 0.00 1.04 0.25 93 1011.3
20260507065603 11 0 0.0 0.0 0.00 1.04 0.25 93 1011.3
20260507065404 11 0 0.0 0.0 0.00 1.04 0.25 93 1011.3
20260507065203 11 0 0.0 0.0 0.00 1.04 0.25 93 1011.3
20260507065004 11 0 0.0 0.0 0.00 1.04 0.25 93 1011.3
20260507064903 10 34 0.0 0.0 0.25 1.30 0.51 93 1011.6
20260507064803 11 0 0.0 0.0 0.00 1.04 0.25 93 1011.3
20260507064603 11 0 0.0 0.0 0.00 1.04 0.25 93 1011.3
20260507064403 11 0 0.0 0.0 0.00 1.04 0.25 93 1011.3
20260507064204 11 0 0.0 0.0 0.00 1.04 0.25 93 1011.3
20260507063605 11 0 0.0 0.0 0.00 1.04 0.25 93 1011.3
20260507063403 10 349 0.0 0.0 0.18 1.22 0.43 93 1011.8
20260507063204 11 0 0.0 0.0 0.00 1.04 0.25 93 1011.3
20260507063003 11 0 0.0 0.0 0.00 1.04 0.25 93 1011.3
20260507062903 10 348 0.0 0.0 0.13 1.17 0.38 93 1011.9
20260507062803 11 0 0.0 0.0 0.00 1.04 0.25 93 1011.3
20260507062603 11 0 0.0 0.0 0.00 1.04 0.25 93 1011.3
20260507062203 11 0 0.0 0.0 0.00 1.04 0.25 93 1011.3
20260507061903 10 348 0.0 0.0 0.08 1.12 0.33 94 1012.0
20260507061804 11 0 0.0 0.0 0.00 1.04 0.25 93 1011.3
20260507061604 11 0 0.0 0.0 0.00 1.04 0.25 93 1011.3
20260507061404 11 302 0.0 0.0 0.08 1.12 0.33 94 1011.6
20260507061204 11 0 0.0 0.0 0.00 1.04 0.25 93 1011.3
20260507061004 11 0 0.0 0.0 0.00 1.04 0.25 93 1011.3
20260507060904 11 303 0.0 0.0 0.08 1.12 0.33 94 1011.6
20260507060803 11 0 0.0 0.0 0.00 1.04 0.25 93 1011.3
20260507060604 11 0 0.0 0.0 0.00 1.04 0.25 93 1011.3
20260507060203 11 0 0.0 0.0 0.00 1.04 0.25 93 1011.3
20260507055903 11 301 0.0 0.0 0.03 1.07 0.28 93 1011.5
20260507055803 11 0 0.0 0.0 0.00 1.04 0.25 93 1011.3
20260507055403 11 0 0.0 0.0 0.00 1.04 0.25 93 1011.3
20260507055204 11 0 0.0 0.0 0.00 1.04 0.25 93 1011.3
20260507054903 11 296 0.0 0.0 0.00 1.04 0.25 93 1011.6
20260507054803 11 0 0.0 0.0 0.00 1.04 0.25 93 1011.3
20260507054604 11 0 0.0 0.0 0.00 1.04 0.25 93 1011.3
20260507054404 11 0 0.0 0.0 0.00 1.04 0.25 93 1011.3
20260507054003 11 0 0.0 0.0 0.00 1.04 0.25 93 1011.3
20260507053903 11 296 0.0 0.0 0.00 1.04 0.25 93 1011.4
20260507053803 11 0 0.0 0.0 0.00 1.04 0.25 93 1011.3
20260507053603 11 0 0.0 0.0 0.00 1.04 0.25 93 1011.3
20260507053203 11 0 0.0 0.0 0.03 1.04 0.25 93 1011.3
20260507053004 11 0 0.0 0.0 0.03 1.04 0.25 93 1011.3
20260507052903 11 295 0.0 0.0 0.10 1.04 0.25 93 1011.5
20260507052805 11 0 0.0 0.0 0.10 1.04 0.25 93 1011.3
20260507052603 11 0 0.0 0.0 0.13 1.04 0.25 93 1011.3
20260507052404 11 0 0.0 0.0 0.20 1.04 0.25 93 1011.3
20260507052203 11 0 0.0 0.0 0.25 1.04 0.25 93 1011.3
20260507052004 11 0 0.0 0.0 0.25 1.04 0.25 93 1011.3
20260507051803 11 0 0.0 0.0 0.25 1.04 0.25 93 1011.3
20260507051403 11 0 0.0 0.0 0.25 1.04 0.25 93 1011.3
20260507051203 11 0 0.0 0.0 0.25 1.04 0.25 93 1011.3
20260507051004 11 0 0.0 0.0 0.25 1.04 0.25 93 1011.3
20260507050804 11 0 0.0 0.0 0.25 1.04 0.25 94 1011.3
20260507050604 11 0 0.0 0.0 0.25 1.04 0.25 93 1011.6
20260507045904 11 277 0.0 4.8 0.25 1.04 0.25 93 1011.6
20260507045803 11 0 0.0 4.8 0.25 1.04 0.25 93 1011.5
20260507045603 11 0 0.0 3.2 0.25 1.04 0.25 93 1011.6
20260507045203 11 0 0.0 0.0 0.25 1.04 0.25 93 1011.2
20260507044903 11 292 0.0 4.8 0.25 1.04 0.25 93 1011.5
20260507044204 11 0 0.0 0.0 0.25 1.04 0.25 93 1011.2
20260507044003 11 0 0.0 0.0 0.28 1.04 0.25 93 1011.0
20260507043903 12 292 0.0 0.0 0.28 1.04 0.25 93 1011.2
20260507043803 12 0 0.0 0.0 0.28 1.04 0.25 92 1011.0
20260507043605 12 0 0.0 0.0 0.28 1.04 0.25 92 1011.1
20260507043405 12 0 0.0 0.0 0.25 1.02 0.23 92 1011.0
20260507043204 12 0 0.0 0.0 0.25 1.02 0.23 92 1010.9
20260507043003 12 0 0.0 0.0 0.20 0.97 0.18 92 1010.8
20260507042804 12 0 0.0 0.0 0.18 0.94 0.15 92 1010.8
20260507042603 12 0 0.0 0.0 0.13 0.89 0.10 92 1011.2
20260507042403 12 291 0.0 9.7 0.03 0.79 0.00 92 1011.6
20260507042204 12 0 0.0 9.7 0.03 0.79 0.00 92 1011.4
20260507042004 12 0 0.0 4.8 0.03 0.79 0.00 92 1011.3
20260507041903 12 302 1.6 4.8 0.03 0.79 0.00 92 1011.4
20260507041804 12 0 0.0 4.8 0.03 0.79 0.00 92 1011.1
20260507041603 12 0 0.0 0.0 0.03 0.79 0.00 92 1010.9
20260507041403 12 328 0.0 0.0 0.03 0.79 0.00 91 1010.9
20260507041204 12 0 0.0 0.0 0.03 0.79 0.00 91 1010.6
20260507041003 12 0 0.0 0.0 0.03 0.79 0.00 91 1010.7
20260507040904 12 328 0.0 0.0 0.03 0.79 0.00 91 1010.9
20260507040803 12 0 0.0 0.0 0.03 0.79 0.00 91 1010.7
20260507040604 12 0 0.0 0.0 0.05 0.79 0.00 91 1010.7
20260507040403 12 0 0.0 0.0 0.05 0.79 0.00 91 1010.5
20260507040203 12 0 0.0 0.0 0.05 0.79 0.00 91 1010.6
20260507040047 12 331 0.0 0.0 0.00 0.00 0.00 91 1010.7
20260507040013 12 11 0.0 0.0 0.00 0.00 0.79 91 1010.7
20260507040005 12 0 0.0 0.0 0.05 0.79 0.00 91 1010.6
20260507035904 12 11 0.0 0.0 0.05 0.79 0.79 91 1010.9
20260507035804 12 0 0.0 0.0 0.05 0.79 0.79 91 1010.8
20260507035603 12 0 0.0 0.0 0.05 0.79 0.79 91 1010.7
20260507035404 12 0 0.0 0.0 0.05 0.79 0.79 91 1010.6
20260507035204 12 0 0.0 0.0 0.05 0.79 0.79 91 1010.6
20260507035003 12 0 0.0 0.0 0.05 0.79 0.79 91 1010.6
20260507034903 12 11 0.0 3.2 0.05 0.79 0.79 90 1010.7
20260507034803 12 0 0.0 3.2 0.05 0.79 0.79 90 1010.5
20260507034607 12 11 0.0 0.0 0.00 0.00 0.79 91 1010.6
20260507034520 12 11 0.0 0.0 0.00 0.00 0.79 91 1010.6
20260507034404 12 331 0.0 0.0 0.05 0.79 0.79 91 1010.8
20260507033903 12 297 0.0 4.8 0.03 0.76 0.76 91 1011.0
20260507033803 12 325 1.6 3.2 0.03 0.76 0.76 91 1010.8
20260507033605 12 0 1.6 0.0 0.03 0.76 0.76 91 1010.9
20260507033405 12 303 1.6 12.9 0.03 0.76 0.76 91 1011.1
20260507033032 12 300 0.0 0.0 0.00 0.00 0.76 92 1011.1
20260507032903 13 300 1.6 4.8 0.03 0.76 0.76 92 1010.9
20260507032804 13 0 0.0 4.8 0.03 0.76 0.76 92 1010.8
20260507032203 13 0 0.0 0.0 0.03 0.76 0.76 91 1010.3
20260507032003 13 0 0.0 0.0 0.03 0.76 0.76 91 1010.3
20260507031903 13 349 0.0 0.0 0.03 0.76 0.76 91 1010.5
20260507031804 13 0 0.0 0.0 0.03 0.76 0.76 91 1010.3
20260507031603 13 0 0.0 0.0 0.03 0.76 0.76 91 1010.3
20260507031532 13 349 0.0 0.0 0.00 0.00 0.76 91 1010.5
20260507031404 13 0 0.0 0.0 0.03 0.76 0.76 91 1010.3
20260507031205 13 0 0.0 0.0 0.03 0.76 0.76 92 1010.2
20260507031004 13 0 0.0 6.4 0.03 0.76 0.76 92 1010.5
20260507030905 13 347 1.6 4.8 0.03 0.76 0.76 92 1010.7
20260507030803 13 0 0.0 4.8 0.03 0.76 0.76 92 1010.5
20260507030604 13 0 0.0 0.0 0.00 0.74 0.74 92 1010.3
20260507030404 13 0 0.0 0.0 0.00 0.74 0.74 92 1010.2
20260507030203 13 0 0.0 0.0 0.00 0.74 0.74 91 1010.2
20260507030040 13 322 0.0 0.0 0.00 0.00 0.71 91 1010.4
20260507030004 13 0 0.0 0.0 0.00 0.74 0.74 91 1010.3
20260507025904 13 321 0.0 0.0 0.00 0.74 0.74 92 1010.5
20260507025805 13 0 0.0 0.0 0.00 0.74 0.74 92 1010.4
20260507025403 13 321 0.0 0.0 0.00 0.74 0.74 91 1010.9
20260507025003 14 0 1.6 0.0 0.00 0.74 0.74 91 1010.5
20260507024904 14 321 0.0 12.9 0.00 0.74 0.74 91 1010.7
20260507024803 14 309 1.6 6.4 0.00 0.74 0.74 91 1010.9
20260507024604 14 0 0.0 12.9 0.00 0.74 0.74 92 1010.9
20260507024543 14 321 0.0 0.0 0.00 0.00 0.71 92 1011.1
20260507024506 14 296 0.0 0.0 0.00 0.00 0.71 92 1011.0
20260507024404 14 0 0.0 0.0 0.00 0.74 0.74 92 1010.8
20260507024204 14 0 0.0 0.0 0.00 0.74 0.74 93 1010.3
20260507024004 14 0 0.0 0.0 0.00 0.74 0.74 92 1010.1
20260507023903 15 328 0.0 0.0 0.00 0.74 0.74 93 1010.2
20260507023404 15 0 0.0 0.0 0.00 0.74 0.74 93 1010.0
20260507023204 15 0 0.0 0.0 0.00 0.74 0.74 92 1010.1
20260507023049 14 329 0.0 0.0 0.00 0.00 0.71 93 1010.2
20260507023009 14 329 0.0 0.0 0.00 0.00 0.71 93 1010.1
20260507023004 15 0 0.0 0.0 0.00 0.74 0.74 93 1010.0
20260507022904 15 329 0.0 0.0 0.00 0.74 0.74 93 1010.1
20260507022804 15 0 0.0 0.0 0.00 0.74 0.74 93 1010.0
20260507022603 15 0 0.0 0.0 0.00 0.74 0.74 92 1010.1
20260507022404 15 0 0.0 0.0 0.00 0.74 0.74 92 1010.1
20260507022203 15 0 0.0 0.0 0.00 0.74 0.74 92 1010.2
20260507021903 15 326 0.0 11.3 0.03 0.74 0.74 92 1010.3
20260507021804 15 0 0.0 11.3 0.03 0.74 0.74 93 1010.2
20260507021557 15 338 0.0 0.0 0.00 0.00 0.71 93 1010.3
20260507021520 15 340 0.0 0.0 0.00 0.00 0.71 93 1010.4
20260507021404 15 340 0.0 0.0 0.03 0.74 0.74 93 1010.3
20260507021203 15 0 0.0 0.0 0.03 0.74 0.74 93 1010.1
20260507020905 15 338 1.6 4.8 0.03 0.74 0.74 93 1010.2
20260507020603 15 0 0.0 0.0 0.03 0.74 0.74 93 1010.0
20260507020404 15 0 0.0 0.0 0.03 0.74 0.74 93 1010.0
20260507020030 15 309 0.0 0.0 0.00 0.00 0.71 93 1010.2
20260507020004 15 0 0.0 11.3 0.03 0.74 0.74 93 1010.0
20260507015903 15 307 3.2 11.3 0.03 0.74 0.74 93 1010.1
20260507015804 15 0 0.0 11.3 0.03 0.74 0.74 93 1010.0
20260507015404 15 0 0.0 0.0 0.05 0.74 0.74 93 1010.1
20260507015204 15 0 0.0 0.0 0.13 0.74 0.74 93 1010.1
20260507015004 15 0 0.0 0.0 0.18 0.74 0.74 92 1010.1
20260507014904 15 296 0.0 0.0 0.18 0.74 0.74 92 1010.2
20260507014803 15 0 1.6 0.0 0.18 0.74 0.74 92 1010.1
20260507014555 15 297 1.6 0.0 0.00 0.00 0.71 93 1010.2
20260507014515 15 297 1.6 0.0 0.00 0.00 0.71 92 1010.3
20260507014404 16 0 1.6 0.0 0.20 0.74 0.74 93 1010.2
20260507014203 16 288 1.6 1.6 0.23 0.74 0.74 92 1010.1
20260507014004 16 285 1.6 6.4 0.23 0.74 0.74 92 1010.3
20260507013903 16 283 1.6 4.8 0.23 0.74 0.74 92 1010.4
20260507013804 16 0 0.0 4.8 0.23 0.74 0.74 92 1010.3
20260507013605 16 0 0.0 1.6 0.23 0.74 0.74 92 1010.3
20260507013111 16 285 0.0 0.0 0.00 0.00 0.71 92 1010.4
20260507013032 16 284 0.0 0.0 0.00 0.00 0.71 92 1010.3
20260507013005 16 0 0.0 0.0 0.23 0.74 0.74 92 1010.2
20260507012904 16 285 0.0 4.8 0.23 0.74 0.74 92 1010.3
20260507012604 16 0 0.0 4.8 0.23 0.74 0.74 93 1010.4
20260507012003 16 0 0.0 3.2 0.23 0.71 0.71 93 1010.4
20260507011903 16 295 0.0 1.6 0.23 0.71 0.71 93 1010.5
20260507011804 16 0 0.0 0.0 0.23 0.71 0.71 93 1010.4
20260507011604 16 0 0.0 1.6 0.23 0.71 0.71 93 1010.2
20260507011536 16 266 0.0 0.0 0.00 0.00 0.71 93 1010.4
20260507011403 16 300 0.0 3.2 0.23 0.71 0.71 93 1010.3
20260507011004 16 0 0.0 0.0 0.23 0.71 0.71 93 1010.2
20260507010904 16 313 0.0 0.0 0.23 0.71 0.71 93 1010.2
20260507010604 16 0 0.0 0.0 0.23 0.71 0.71 93 1010.1
20260507010405 16 0 0.0 0.0 0.23 0.71 0.71 93 1010.0
20260507010204 16 0 0.0 0.0 0.23 0.71 0.71 93 1010.0
20260507010036 16 312 0.0 0.0 0.00 0.00 0.71 93 1010.1
20260507010004 16 0 0.0 0.0 0.23 0.71 0.71 93 1010.2
20260507005903 16 312 0.0 0.0 0.23 0.71 0.71 93 1010.2
20260507005804 16 0 0.0 0.0 0.23 0.71 0.71 93 1010.1
20260507005403 17 312 0.0 4.8 0.18 0.66 0.66 92 1010.5
20260507005004 17 0 0.0 0.0 0.08 0.56 0.56 92 1010.2
20260507004803 17 0 0.0 1.6 0.08 0.56 0.56 92 1009.9
20260507004605 17 0 0.0 4.8 0.05 0.53 0.53 92 1009.9
20260507004546 16 296 0.0 0.0 0.00 0.00 0.53 92 1010.0
20260507004513 16 296 0.0 0.0 0.00 0.00 0.53 92 1009.9
20260507004404 17 0 0.0 0.0 0.05 0.53 0.53 91 1009.8
20260507004203 17 0 0.0 0.0 0.03 0.51 0.51 91 1009.8
20260507004004 17 0 0.0 0.0 0.03 0.51 0.51 91 1009.8
20260507003903 17 292 0.0 0.0 0.03 0.51 0.51 91 1009.8
20260507003804 17 0 0.0 0.0 0.03 0.51 0.51 91 1009.7
20260507003604 17 0 0.0 0.0 0.03 0.51 0.51 90 1009.6
20260507003204 17 0 0.0 0.0 0.03 0.51 0.51 90 1009.6
20260507003054 17 292 0.0 0.0 0.00 0.00 0.51 90 1009.7
20260507003019 17 291 0.0 0.0 0.00 0.00 0.51 90 1009.7
20260507003004 17 0 0.0 0.0 0.03 0.51 0.51 90 1009.6
20260507002905 17 292 0.0 0.0 0.03 0.51 0.51 90 1009.6
20260507002804 17 0 0.0 0.0 0.03 0.51 0.51 90 1009.5
20260507002604 17 0 0.0 0.0 0.03 0.51 0.51 90 1009.5
20260507002204 17 0 0.0 0.0 0.03 0.51 0.51 89 1009.5
20260507002004 17 0 0.0 0.0 0.00 0.48 0.48 89 1009.6
20260507001804 17 0 0.0 0.0 0.00 0.48 0.48 89 1009.6
20260507001604 17 0 0.0 0.0 0.00 0.48 0.48 89 1009.6
20260507001523 17 292 0.0 0.0 0.00 0.00 0.48 88 1009.7
20260507001203 17 0 0.0 0.0 0.00 0.48 0.48 88 1009.6
20260507001004 17 0 0.0 0.0 0.00 0.48 0.48 88 1009.5
20260507000904 17 292 0.0 0.0 0.00 0.48 0.48 88 1009.6
20260507000605 17 0 0.0 0.0 0.00 0.48 0.48 88 1009.5
20260507000405 17 292 0.0 0.0 0.00 0.48 0.48 88 1009.4
20260507000205 17 0 0.0 0.0 0.00 0.48 0.48 88 1009.1
20260507000032 17 292 0.0 0.0 0.00 0.00 0.48 88 1009.1
20260507000004 17 0 0.0 0.0 0.00 0.48 0.48 88 1009.1
20260506235903 17 292 0.0 0.0 0.00 0.48 0.48 88 1009.1
20260506235803 17 0 0.0 0.0 0.00 0.48 0.48 88 1008.9
20260506235605 17 0 0.0 0.0 0.00 0.48 0.48 88 1008.8
20260506235404 17 0 0.0 0.0 0.00 0.48 0.48 88 1008.9
20260506235203 17 0 0.0 0.0 0.00 0.48 0.48 88 1009.0
20260506235004 17 0 0.0 0.0 0.00 0.48 0.48 88 1009.0
20260506234904 17 292 0.0 0.0 0.00 0.48 0.48 87 1009.0
20260506234803 17 0 0.0 0.0 0.00 0.48 0.48 87 1009.0
20260506234539 17 292 0.0 0.0 0.00 0.00 0.48 87 1008.9
20260506234404 17 292 0.0 0.0 0.00 0.48 0.48 87 1009.0
20260506234203 17 0 0.0 0.0 0.00 0.48 0.48 86 1009.0
20260506234004 17 0 0.0 0.0 0.00 0.48 0.48 86 1009.0
20260506233903 17 291 0.0 0.0 0.00 0.48 0.48 86 1009.0
20260506233803 17 0 0.0 0.0 0.00 0.48 0.48 86 1008.9
20260506233604 17 0 0.0 0.0 0.00 0.48 0.48 86 1009.0
20260506233404 17 0 0.0 0.0 0.00 0.48 0.48 87 1009.0
20260506233204 17 0 0.0 0.0 0.00 0.48 0.48 87 1008.8
20260506233048 17 292 0.0 0.0 0.00 0.00 0.48 87 1008.8
20260506233005 17 0 0.0 0.0 0.00 0.48 0.48 87 1008.8
20260506233003 17 291 0.0 0.0 0.00 0.00 0.48 87 1008.8
20260506232904 17 292 0.0 0.0 0.00 0.48 0.48 87 1008.9
20260506232803 17 0 0.0 0.0 0.00 0.48 0.48 87 1008.8
20260506232604 17 0 0.0 0.0 0.00 0.48 0.48 87 1008.7
20260506232405 18 0 0.0 0.0 0.00 0.48 0.48 87 1008.7
20260506232204 18 0 0.0 0.0 0.00 0.48 0.48 86 1008.7
20260506232004 18 0 0.0 0.0 0.00 0.48 0.48 86 1008.7
20260506231903 18 259 0.0 0.0 0.00 0.48 0.48 86 1008.8
20260506231803 18 0 0.0 0.0 0.00 0.48 0.48 86 1008.7
20260506231604 18 0 0.0 0.0 0.00 0.48 0.48 87 1008.8
20260506231549 17 259 0.0 0.0 0.00 0.00 0.48 87 1008.8
20260506231503 17 259 0.0 0.0 0.00 0.00 0.48 87 1008.8
20260506231403 18 259 0.0 0.0 0.00 0.48 0.48 87 1008.9
20260506231204 18 0 0.0 0.0 0.00 0.48 0.48 87 1008.8
20260506230903 18 259 0.0 0.0 0.00 0.48 0.48 86 1008.7
20260506230803 18 0 0.0 0.0 0.00 0.48 0.48 86 1008.8
20260506230604 18 0 0.0 0.0 0.00 0.48 0.48 87 1008.9
20260506230404 18 0 0.0 0.0 0.00 0.48 0.48 86 1009.0
20260506230203 18 0 0.0 0.0 0.00 0.48 0.48 85 1009.1
20260506230053 18 185 0.0 0.0 0.00 0.00 0.48 85 1009.1
20260506230007 18 185 0.0 0.0 0.00 0.00 0.48 86 1009.1
20260506230005 18 0 0.0 0.0 0.00 0.48 0.48 86 1009.1
20260506225904 18 185 0.0 0.0 0.00 0.48 0.48 86 1009.0
20260506225804 18 0 0.0 0.0 0.00 0.48 0.48 86 1008.9
20260506225404 18 185 0.0 0.0 0.00 0.48 0.48 85 1008.8
20260506225203 18 0 0.0 0.0 0.00 0.48 0.48 86 1008.8
20260506225004 18 0 0.0 0.0 0.00 0.48 0.48 85 1008.8
20260506224904 18 185 0.0 0.0 0.00 0.48 0.48 86 1008.8
20260506224804 18 0 0.0 0.0 0.00 0.48 0.48 86 1008.8
20260506224557 18 184 0.0 0.0 0.00 0.00 0.48 85 1008.8
20260506224512 18 185 0.0 0.0 0.00 0.00 0.48 85 1008.8
20260506224404 18 0 0.0 0.0 0.00 0.48 0.48 85 1008.8
20260506223903 18 185 0.0 0.0 0.00 0.48 0.48 84 1008.8
20260506223804 18 0 0.0 0.0 0.00 0.48 0.48 84 1008.8
20260506223604 18 0 0.0 0.0 0.00 0.48 0.48 85 1008.8
20260506223405 18 0 0.0 0.0 0.00 0.48 0.48 85 1008.9
20260506223204 18 0 0.0 0.0 0.00 0.48 0.48 85 1008.9
20260506223126 18 185 0.0 0.0 0.00 0.00 0.48 85 1008.8
20260506223015 18 185 0.0 0.0 0.00 0.00 0.48 84 1008.8
20260506223003 18 0 0.0 0.0 0.00 0.48 0.48 84 1008.7
20260506222903 18 185 0.0 0.0 0.00 0.48 0.48 84 1008.7
20260506222805 18 0 0.0 0.0 0.00 0.48 0.48 84 1008.8
20260506222605 18 0 0.0 0.0 0.00 0.48 0.48 84 1008.8
20260506222404 18 0 0.0 0.0 0.00 0.48 0.48 84 1008.8
20260506221903 18 185 0.0 0.0 0.00 0.48 0.48 84 1008.9
20260506221804 18 0 0.0 0.0 0.00 0.48 0.48 84 1008.9
20260506221604 18 0 0.0 0.0 0.00 0.48 0.48 83 1008.8
20260506221602 18 185 0.0 0.0 0.00 0.00 0.48 83 1008.8
20260506221512 18 185 0.0 0.0 0.00 0.00 0.48 83 1008.8
20260506221404 18 184 0.0 0.0 0.00 0.48 0.48 83 1008.8
20260506221204 18 0 0.0 0.0 0.00 0.48 0.48 82 1008.9
20260506221004 18 0 0.0 0.0 0.00 0.48 0.48 83 1008.8
20260506220904 18 185 0.0 0.0 0.00 0.48 0.48 82 1008.8
20260506220803 18 0 0.0 0.0 0.00 0.48 0.48 81 1008.8
20260506220204 18 0 0.0 0.0 0.00 0.48 0.48 81 1008.8
20260506220019 18 184 0.0 0.0 0.00 0.00 0.48 81 1008.8
20260506220004 18 0 0.0 0.0 0.00 0.48 0.48 81 1008.8
20260506215903 19 184 0.0 0.0 0.00 0.48 0.48 81 1008.8
20260506215805 19 0 0.0 0.0 0.00 0.48 0.48 81 1008.9
20260506215605 19 0 0.0 0.0 0.00 0.48 0.48 80 1008.8
20260506215404 19 184 0.0 0.0 0.00 0.48 0.48 79 1008.7
20260506215203 19 0 0.0 0.0 0.00 0.48 0.48 79 1008.8
20260506215004 19 0 0.0 0.0 0.00 0.48 0.48 80 1008.8
20260506214903 19 234 0.0 0.0 0.00 0.48 0.48 79 1008.8
20260506214804 19 0 0.0 0.0 0.00 0.48 0.48 79 1008.6
20260506214603 19 0 0.0 0.0 0.00 0.48 0.48 79 1008.5
20260506214520 19 216 0.0 0.0 0.00 0.00 0.48 79 1008.5
20260506214404 19 0 0.0 0.0 0.00 0.48 0.48 79 1008.5
20260506214005 19 0 0.0 1.6 0.00 0.48 0.48 79 1008.5
20260506213605 20 0 0.0 0.0 0.00 0.48 0.48 80 1008.3
20260506213204 20 0 0.0 0.0 0.00 0.48 0.48 79 1008.4
20260506213023 19 259 0.0 0.0 0.00 0.00 0.48 80 1008.4
20260506213003 20 0 0.0 0.0 0.00 0.48 0.48 79 1008.4
20260506212905 20 259 0.0 0.0 0.00 0.48 0.48 79 1008.3
20260506212603 20 0 0.0 0.0 0.00 0.48 0.48 79 1008.3
20260506212404 20 0 0.0 0.0 0.00 0.48 0.48 79 1008.3
20260506212205 20 0 0.0 0.0 0.00 0.48 0.48 78 1008.4
20260506212003 20 0 0.0 0.0 0.00 0.48 0.48 77 1008.4
20260506211903 20 211 0.0 4.8 0.00 0.48 0.48 77 1008.4
20260506211804 20 0 0.0 6.4 0.00 0.48 0.48 78 1008.3
20260506211603 20 0 0.0 6.4 0.00 0.48 0.48 78 1008.3
20260506211534 20 261 0.0 0.0 0.00 0.00 0.48 79 1008.3
20260506211404 20 0 0.0 1.6 0.00 0.48 0.48 78 1008.3
20260506211204 20 0 0.0 0.0 0.00 0.48 0.48 78 1008.4
20260506210904 20 254 0.0 4.8 0.00 0.48 0.48 79 1008.3
20260506210804 20 0 0.0 0.0 0.00 0.48 0.48 79 1008.3
20260506210604 20 0 0.0 0.0 0.00 0.48 0.48 81 1008.2
20260506210403 20 210 0.0 0.0 0.00 0.48 0.48 80 1008.2
20260506210205 20 0 0.0 0.0 0.00 0.48 0.48 81 1008.1
20260506210041 19 210 0.0 0.0 0.00 0.00 0.48 81 1008.2
20260506210004 20 0 0.0 0.0 0.00 0.48 0.48 80 1008.2
20260506210001 19 210 0.0 0.0 0.00 0.00 0.48 80 1008.1
20260506205903 20 207 0.0 0.0 0.00 0.48 0.48 81 1008.1
20260506205804 20 0 0.0 0.0 0.00 0.48 0.48 81 1008.1
20260506205604 20 0 0.0 0.0 0.00 0.48 0.48 82 1008.1
20260506205404 19 0 0.0 0.0 0.00 0.48 0.48 82 1008.2
20260506205204 19 0 0.0 0.0 0.00 0.48 0.48 82 1008.2
20260506204904 19 208 0.0 0.0 0.00 0.48 0.48 81 1008.2
20260506204803 19 0 0.0 0.0 0.00 0.48 0.48 81 1008.2
20260506204545 19 208 0.0 0.0 0.00 0.00 0.48 81 1008.1
20260506204509 19 207 0.0 0.0 0.00 0.00 0.48 81 1008.1
20260506204404 19 0 0.0 0.0 0.00 0.48 0.48 83 1008.2
20260506204203 19 0 0.0 0.0 0.00 0.48 0.48 84 1008.1
20260506204004 19 0 0.0 0.0 0.00 0.48 0.48 83 1008.2
20260506203903 19 207 0.0 0.0 0.00 0.48 0.48 83 1008.2
20260506203803 19 0 0.0 0.0 0.00 0.48 0.48 83 1008.3
20260506203604 19 0 0.0 0.0 0.00 0.48 0.48 81 1008.2
20260506203404 19 292 0.0 0.0 0.00 0.48 0.48 80 1008.1
20260506203204 19 0 0.0 0.0 0.00 0.48 0.48 79 1008.2
20260506203101 19 286 0.0 0.0 0.00 0.00 0.48 80 1008.1
20260506203021 19 286 0.0 0.0 0.00 0.00 0.48 79 1008.2
20260506203004 19 0 0.0 0.0 0.00 0.48 0.48 79 1008.2
20260506202904 19 248 0.0 0.0 0.00 0.48 0.48 80 1008.2
20260506202604 19 0 0.0 0.0 0.00 0.48 0.48 81 1008.1
20260506202404 19 238 0.0 0.0 0.00 0.48 0.48 81 1008.1
20260506202004 19 0 0.0 0.0 0.00 0.48 0.48 81 1008.1
20260506201903 19 228 0.0 0.0 0.00 0.48 0.48 83 1008.0
20260506201805 19 0 0.0 0.0 0.00 0.48 0.48 83 1008.1
20260506201603 19 0 0.0 0.0 0.00 0.48 0.48 83 1008.1
20260506201525 18 229 0.0 0.0 0.00 0.00 0.48 82 1008.1
20260506201404 19 0 0.0 0.0 0.00 0.48 0.48 81 1008.1
20260506201205 19 0 1.6 0.0 0.00 0.48 0.48 84 1008.0
20260506200905 18 257 0.0 3.2 0.00 0.48 0.48 82 1008.2
20260506200604 18 0 0.0 3.2 0.00 0.48 0.48 83 1008.1
20260506200405 18 0 0.0 12.9 0.00 0.48 0.48 83 1008.1
20260506200204 18 0 0.0 12.9 0.00 0.48 0.48 83 1008.1
20260506200051 18 186 0.0 0.0 0.00 0.00 0.48 83 1008.0
20260506200004 18 0 0.0 0.0 0.00 0.48 0.48 83 1008.1
20260506195904 18 186 0.0 0.0 0.00 0.48 0.48 84 1008.1
20260506195804 18 0 0.0 0.0 0.00 0.48 0.48 84 1008.1
20260506195604 18 0 0.0 0.0 0.00 0.48 0.48 82 1008.1
20260506195405 18 184 0.0 0.0 0.00 0.48 0.48 83 1008.1
20260506195204 18 0 0.0 0.0 0.00 0.48 0.48 84 1008.2
20260506195004 18 0 0.0 0.0 0.00 0.48 0.48 83 1008.2
20260506194904 18 184 0.0 4.8 0.00 0.48 0.48 83 1008.2
20260506194803 18 0 0.0 6.4 0.00 0.48 0.48 83 1008.2
20260506194605 18 0 0.0 6.4 0.00 0.48 0.48 82 1008.2
20260506194553 18 179 0.0 0.0 0.00 0.00 0.48 82 1008.1
20260506194515 18 179 0.0 0.0 0.00 0.00 0.48 82 1008.1
20260506194404 18 0 0.0 0.0 0.00 0.48 0.48 84 1008.2
20260506194204 18 0 0.0 1.6 0.00 0.48 0.48 84 1008.2
20260506193805 18 288 1.6 6.4 0.00 0.48 0.48 82 1008.2
20260506193604 18 0 0.0 6.4 0.00 0.48 0.48 82 1008.2
20260506193205 18 0 0.0 9.7 0.00 0.48 0.48 83 1008.2
20260506193024 18 44 0.0 0.0 0.00 0.00 0.48 85 1008.2
20260506193004 18 0 0.0 3.2 0.00 0.48 0.48 85 1008.4
20260506192805 18 0 0.0 0.0 0.00 0.48 0.48 84 1008.4
20260506192604 18 337 1.6 1.6 0.00 0.48 0.48 84 1008.3
20260506192404 18 285 1.6 4.8 0.00 0.48 0.48 85 1008.3
20260506192204 18 312 1.6 12.9 0.00 0.48 0.48 83 1008.3
20260506192004 18 0 0.0 6.4 0.00 0.48 0.48 84 1008.3
20260506191904 18 329 1.6 4.8 0.00 0.48 0.48 85 1008.3
20260506191805 18 0 0.0 6.4 0.00 0.48 0.48 85 1008.4
20260506191605 18 0 0.0 3.2 0.00 0.48 0.48 86 1008.4
20260506191534 18 180 0.0 0.0 0.00 0.00 0.48 86 1008.4
20260506191404 18 178 1.6 4.8 0.00 0.48 0.48 85 1008.4
20260506191204 18 0 0.0 0.0 0.00 0.48 0.48 86 1008.5
20260506191004 18 194 1.6 3.2 0.00 0.48 0.48 87 1008.5
20260506190903 18 194 0.0 4.8 0.00 0.48 0.48 86 1008.5
20260506190804 18 194 1.6 6.4 0.00 0.48 0.48 87 1008.5
20260506190604 18 190 1.6 6.4 0.00 0.48 0.48 89 1008.5
20260506190205 17 238 1.6 12.9 0.00 0.48 0.48 87 1008.6
20260506190045 17 233 0.0 0.0 0.00 0.00 0.48 88 1008.5
20260506190009 17 229 0.0 0.0 0.00 0.00 0.48 88 1008.5
20260506190004 17 0 0.0 6.4 0.00 0.48 0.48 88 1008.7
20260506185904 17 249 0.0 4.8 0.00 0.48 0.48 92 1008.5
20260506185604 17 0 0.0 6.4 0.00 0.48 0.48 92 1008.7
20260506185404 16 0 0.0 1.6 0.00 0.48 0.48 91 1008.8
20260506185204 16 0 0.0 0.0 0.00 0.48 0.48 90 1008.8
20260506185004 16 0 0.0 0.0 0.00 0.48 0.48 91 1008.7
20260506184903 16 222 0.0 0.0 0.00 0.48 0.48 92 1008.6
20260506184805 16 0 0.0 0.0 0.00 0.48 0.48 92 1008.7
20260506184604 16 0 0.0 0.0 0.00 0.48 0.48 92 1008.7
20260506184554 16 222 0.0 0.0 0.00 0.00 0.48 92 1008.6
20260506184515 16 222 0.0 0.0 0.00 0.00 0.48 92 1008.6
20260506184204 16 0 0.0 0.0 0.00 0.48 0.48 92 1008.7
20260506184004 16 0 0.0 0.0 0.00 0.48 0.48 92 1008.7
20260506183905 16 222 0.0 0.0 0.00 0.48 0.48 92 1008.6
20260506183804 16 0 0.0 0.0 0.00 0.48 0.48 92 1008.8
20260506183604 16 0 0.0 0.0 0.00 0.48 0.48 93 1008.8
20260506183403 16 224 0.0 0.0 0.00 0.48 0.48 92 1008.7
20260506183204 16 0 0.0 0.0 0.00 0.48 0.48 92 1008.8
20260506183059 16 24 0.0 0.0 0.00 0.00 0.48 92 1008.7
20260506183024 16 155 0.0 0.0 0.00 0.00 0.48 92 1008.8
20260506183005 16 0 0.0 0.0 0.00 0.48 0.48 92 1008.8
20260506182904 16 155 0.0 0.0 0.00 0.48 0.48 92 1008.8
20260506182804 16 0 0.0 0.0 0.00 0.48 0.48 91 1008.9
20260506182604 16 0 0.0 0.0 0.00 0.48 0.48 92 1008.9
20260506182405 16 0 0.0 0.0 0.00 0.48 0.48 93 1008.9
20260506182204 16 0 0.0 0.0 0.00 0.48 0.48 92 1008.9
20260506182005 16 0 0.0 0.0 0.00 0.48 0.48 92 1008.9
20260506181904 16 152 0.0 0.0 0.00 0.48 0.48 92 1008.8
20260506181804 16 0 0.0 0.0 0.00 0.48 0.48 92 1008.9
20260506181604 16 0 0.0 0.0 0.00 0.48 0.48 92 1008.8
20260506181532 15 152 0.0 0.0 0.00 0.00 0.48 92 1008.8
20260506181404 16 152 0.0 0.0 0.00 0.48 0.48 92 1008.8
20260506181204 15 0 0.0 0.0 0.00 0.48 0.48 92 1009.1
20260506180804 15 0 0.0 0.0 0.00 0.48 0.48 92 1009.3
20260506180604 15 0 0.0 0.0 0.00 0.48 0.48 92 1009.2
20260506180404 15 0 0.0 0.0 0.00 0.48 0.48 92 1009.2
20260506180205 15 0 0.0 0.0 0.00 0.48 0.48 93 1009.2
20260506180047 15 155 0.0 0.0 0.00 0.00 0.48 92 1009.1
20260506180005 15 155 0.0 0.0 0.00 0.00 0.48 92 1009.1
20260506175804 15 0 0.0 3.2 0.00 0.48 0.48 93 1009.2
20260506175604 15 0 0.0 0.0 0.00 0.48 0.48 93 1009.2
20260506175204 15 0 0.0 0.0 0.00 0.48 0.48 92 1009.1
20260506175004 15 0 0.0 0.0 0.00 0.48 0.48 93 1009.1
20260506174903 15 202 0.0 4.8 0.00 0.48 0.48 93 1009.0
20260506174604 15 0 0.0 4.8 0.00 0.48 0.48 93 1009.2
20260506174547 15 202 0.0 0.0 0.00 0.00 0.48 93 1009.0
20260506174513 15 229 0.0 0.0 0.00 0.00 0.48 93 1009.0
20260506174204 15 0 0.0 0.0 0.00 0.48 0.48 93 1009.2
20260506174004 15 0 0.0 0.0 0.00 0.48 0.48 93 1009.2
20260506173903 15 247 0.0 0.0 0.00 0.48 0.48 93 1009.1
20260506173805 15 0 0.0 0.0 0.00 0.48 0.48 93 1009.2
20260506173604 15 0 0.0 0.0 0.00 0.48 0.48 93 1009.2
20260506173404 15 0 0.0 3.2 0.00 0.48 0.48 93 1009.2
20260506173204 15 197 1.6 6.4 0.00 0.48 0.48 93 1009.1
20260506173107 15 201 1.6 0.0 0.00 0.00 0.48 93 1009.0
20260506173016 15 201 1.6 0.0 0.00 0.00 0.48 93 1008.9
20260506173005 15 220 1.6 6.4 0.00 0.48 0.48 93 1009.1
20260506172904 15 115 0.0 4.8 0.00 0.48 0.48 93 1009.0
20260506172804 15 0 0.0 4.8 0.00 0.48 0.48 93 1009.1
20260506172404 15 0 0.0 6.4 0.00 0.48 0.48 93 1009.1
20260506172004 15 0 0.0 8.0 0.00 0.48 0.48 93 1009.2
20260506171903 15 213 1.6 8.0 0.00 0.48 0.48 94 1009.1
20260506171804 15 0 0.0 8.0 0.00 0.48 0.48 94 1009.2
20260506171605 15 0 0.0 0.0 0.00 0.48 0.48 94 1009.2
20260506171601 15 286 0.0 0.0 0.00 0.00 0.48 94 1009.0
20260506171535 15 292 0.0 0.0 0.00 0.00 0.48 94 1009.0
20260506171404 15 292 0.0 0.0 0.00 0.48 0.48 94 1009.0
20260506171204 15 0 0.0 0.0 0.00 0.48 0.48 94 1009.2
20260506171004 15 0 0.0 1.6 0.00 0.48 0.48 94 1009.1
20260506170903 15 104 0.0 1.6 0.00 0.48 0.48 94 1009.0
20260506170604 15 0 0.0 0.0 0.00 0.48 0.48 94 1009.1
20260506170204 15 0 0.0 0.0 0.00 0.48 0.48 94 1009.2
20260506170028 15 130 0.0 0.0 0.00 0.00 0.48 94 1009.1
20260506170004 15 0 0.0 0.0 0.00 0.48 0.48 94 1009.2
20260506165904 15 130 0.0 0.0 0.00 0.48 0.48 94 1009.1
20260506165404 15 132 0.0 0.0 0.00 0.48 0.48 94 1009.1
20260506165205 15 0 0.0 0.0 0.00 0.48 0.48 94 1009.3
20260506165004 15 0 0.0 0.0 0.00 0.48 0.48 93 1009.3
20260506164804 15 0 0.0 1.6 0.00 0.48 0.48 93 1009.3
20260506164537 14 225 0.0 0.0 0.00 0.00 0.48 94 1009.2
20260506164205 15 0 0.0 0.0 0.00 0.48 0.48 94 1009.3
20260506164005 15 0 0.0 0.0 0.03 0.48 0.48 94 1009.3
20260506163903 15 55 0.0 3.2 0.03 0.48 0.48 94 1009.1
20260506163604 15 0 0.0 6.4 0.03 0.48 0.48 94 1009.2
20260506163404 15 0 0.0 0.0 0.03 0.48 0.48 94 1009.3
20260506163204 15 0 0.0 0.0 0.03 0.48 0.48 94 1009.4
20260506163048 14 126 0.0 0.0 0.00 0.00 0.48 94 1009.2
20260506163017 14 126 0.0 0.0 0.00 0.00 0.48 94 1009.3
20260506163006 15 0 0.0 0.0 0.03 0.48 0.48 94 1009.5
20260506162905 15 167 0.0 4.8 0.03 0.48 0.48 93 1009.4
20260506162805 14 0 0.0 0.0 0.03 0.48 0.48 93 1009.5
20260506162604 14 0 0.0 6.4 0.03 0.48 0.48 93 1009.6
20260506162404 15 166 0.0 4.8 0.03 0.48 0.48 93 1009.4
20260506162204 15 0 0.0 4.8 0.03 0.48 0.48 93 1009.6
20260506162005 15 0 0.0 4.8 0.05 0.48 0.48 93 1009.7
20260506161903 15 195 0.0 4.8 0.05 0.48 0.48 93 1009.4
20260506161804 15 0 0.0 6.4 0.05 0.48 0.48 93 1009.6
20260506161604 15 0 0.0 6.4 0.05 0.48 0.48 93 1009.6
20260506161556 14 195 0.0 0.0 0.00 0.00 0.48 93 1009.4
20260506161521 14 195 0.0 0.0 0.00 0.00 0.48 93 1009.5
20260506161404 15 0 0.0 0.0 0.05 0.48 0.48 93 1009.6
20260506161205 15 0 0.0 6.4 0.05 0.48 0.48 93 1009.6
20260506161004 15 0 0.0 6.4 0.05 0.48 0.48 93 1009.6
20260506160903 15 295 0.0 3.2 0.05 0.48 0.48 93 1009.5
20260506160604 15 246 1.6 6.4 0.05 0.48 0.48 93 1009.6
20260506160404 15 224 1.6 4.8 0.05 0.48 0.48 93 1009.4
20260506160107 14 195 1.6 0.0 0.00 0.00 0.48 94 1009.3
20260506160018 15 192 1.6 0.0 0.00 0.00 0.48 94 1009.3
20260506160005 15 205 1.6 12.9 0.10 0.48 0.48 94 1009.5
20260506155904 15 214 3.2 12.9 0.10 0.48 0.48 94 1009.2
20260506155804 15 208 1.6 12.9 0.10 0.48 0.48 94 1009.4
20260506155604 15 0 1.6 0.0 0.15 0.48 0.48 94 1009.4
20260506155404 15 284 1.6 4.8 0.15 0.48 0.48 94 1009.3
20260506155205 15 316 1.6 16.1 0.15 0.48 0.48 94 1009.3
20260506155005 15 349 1.6 16.1 0.15 0.48 0.48 94 1009.3
20260506154904 15 160 0.0 4.8 0.15 0.48 0.48 94 1009.1
20260506154804 15 196 1.6 6.4 0.15 0.48 0.48 94 1009.4
20260506154604 15 151 1.6 6.4 0.18 0.48 0.48 94 1009.3
20260506154527 14 190 1.6 0.0 0.00 0.00 0.48 94 1009.1
20260506154405 15 145 1.6 6.4 0.18 0.48 0.48 94 1009.4
20260506154204 15 151 1.6 6.4 0.18 0.48 0.48 94 1009.4
20260506154005 14 191 1.6 3.2 0.15 0.46 0.46 94 1009.4
20260506153904 14 189 1.6 12.9 0.15 0.46 0.46 94 1009.2
20260506153605 14 0 0.0 12.9 0.15 0.46 0.46 94 1009.5
20260506153404 14 0 0.0 1.6 0.15 0.46 0.46 94 1009.6
20260506153204 14 0 0.0 0.0 0.15 0.46 0.46 93 1009.8
20260506153042 14 164 0.0 0.0 0.00 0.00 0.46 93 1009.6
20260506153004 14 0 0.0 6.4 0.15 0.46 0.46 93 1009.8
20260506153002 14 165 0.0 0.0 0.00 0.00 0.46 93 1009.6
20260506152804 14 0 0.0 0.0 0.15 0.46 0.46 93 1009.9
20260506152605 14 0 0.0 8.0 0.15 0.46 0.46 93 1010.0
20260506152404 14 191 1.6 8.0 0.18 0.46 0.46 93 1010.0
20260506152205 14 0 1.6 0.0 0.15 0.43 0.43 93 1010.1
20260506152005 14 302 1.6 1.6 0.15 0.43 0.43 93 1010.2
20260506151804 14 294 1.6 1.6 0.15 0.43 0.43 93 1010.2